Location: *
(50.8512°N, 5.6907°E)
Time: 23:30:36
(UTC+00:00)

MOS 1-B Rocket - Pass Details

Date: 09 April 2020
Orbit: 891 x 1605 km, 99.1° (Epoch: 03 June)

Event Time Altitude Azimuth Distance (km) Brightness Sun altitude
Rises 23:33:06 0° 15° (NNE) 3,675 8.1 -31.1°
Reaches altitude 10° 23:35:26 10° 16° (NNE) 2,787 7.2 -31.1°
Maximum altitude 23:41:43 86° 107° (ESE) 1,121 4.1 -31.1°
Enters shadow 23:41:45 86° 120° (ESE) 1,122 4.1 -31.1°
